Вернуться в каталог

COSMOS 1275 DEB

АктивенPO
NORAD 12662·DEBRIS·🇷🇺 Russia

Запущен Jun 4, 1981 с Plesetsk Cosmodrome

Loading…

Ближайшие Пролёты (ближайшие 24 часа)

TLE

СвежийSource: Space-Track

Эпоха: Sep 14, 2026, 11:48 UTC

1 12662U 81053S   26257.49207301  .00000150  00000-0  13330-3 0  9991
2 12662  82.9594 155.0345 0022870 124.3655  48.4452 13.78215779267039

Отслеживайте COSMOS 1275 DEB в реальном времени с AllMySat

Download on the App Store